Location: K�ln
(50.9455°N, 6.9544°E)
Time: 18:56:04
(UTC+01:00)

ISS - Pass Details

Date: 12 November 2017
Orbit: 402 x 407 km, 51.6° (Epoch: 19 November)

Event Time Altitude Azimuth Distance (km) Brightness Sun altitude
Exits shadow 05:52:43 54° 260° (W) 493 -3.8 -17.4°
Maximum altitude 05:53:17 72° 197° (SSW) 426 -3.9 -17.3°
Drops below altitude 10° 05:56:32 10° 113° (ESE) 1,454 0.2 -16.8°
Sets 05:58:37 0° 111° (ESE) 2,312 1.6 -16.4°
